Погода в Агдаше

Азербайджан     40˚38′46″N   47˚28′25″E
темп.,
°C
ветер,
м/с
пор.,
м/с
влажн.,
%
обл.,
%
осадки,
мм/ч
давл.,
гПа
погр.,
м
6 декабря, вс
вс601:00+5˚юз1289100 0.4 1027264
04:00+4˚юз2292100 1.6 1027210
07:00+4˚юз2393100 1.0 1028218
10:00+4˚юз2391100 1.5 1028312
13:00+4˚ююз2392100 0.2 1028259
16:00+4˚ююз2293100 0.3 1028218
19:00+4˚юз2391100 0.3 1029327
22:00+3˚ююз3592100 0.6 1030381
7 декабря, пн
пн701:00+2˚юз2395100 0.2 1030251
04:00+2˚всв1195100 0.4 1031140
07:00+2˚ююв0196100 0.3 1031133
10:00+2˚юв0195100 0.6 1032120
13:00+2˚ю0193100 0.1 1031176
16:00+4˚зюз017799 0.1 1030457
19:00+3˚ссв118260 0.0 103151
22:00+2˚св018447 0.0 103122
8 декабря, вт
вт801:00+1˚с118523 0.0 103122
04:00+1˚с118316 0.0 103022
07:00ссв11841 0.0 103022
10:00+3˚всв01740 0.0 1030172
13:00+5˚зюз21662 0.0 1028671
16:00+5˚юз116414 0.0 1028700
19:00+4˚ююз117190 0.0 102945
22:00+4˚в117395 0.0 102924
9 декабря, ср
ср901:00+3˚св117595 0.0 102922
04:00+2˚ссз117792 0.0 102922
07:00+2˚св117898 0.0 102922
10:00+4˚св116976 0.0 1029139
13:00+7˚з115669 0.0 1028640
16:00+7˚з225884 0.0 1027439
19:00+5˚сз237398 0.0 102870
22:00+5˚сз117097 0.0 102925
10 декабря, чт
чт1001:00+5˚ссз2371100 0.2 1029138
04:00+5˚ссз2274100 0.3 1029121
07:00+4˚ссз2377100 0.3 1030156
10:00+4˚ссз2283100 0.9 103096
13:00+5˚с1186100 0.8 1030101
16:00+5˚ююв0090100 1.3 1030116
19:00+5˚юв1295100 0.3 1031158
22:00+5˚юв2396100 0.6 1031184